Flag for Netherlands Weather past 2 weeks in Nijmegen, Netherlands

Now
45 °F

Broken clouds.


Feels Like: 37 °F
Forecast: 41 / 51 °F
Wind: 16 mph from West

Location: Volkel

Current Time: Mar 30, 2015 at 9:59:45 AM

Latest Report: Mar 30, 2015 at 9:25 AM


Visibility: N/A

Pressure: 29.59 "Hg

Humidity: 66%

Dew point: 34 °F

Location of NijmegenLocation

Historic Weather in Nijmegen — Graph

°F

Nijmegen temperature yesterday

Maximum temperature yesterday: 52 °F (at 12:25 AM)
Minimum temperature yesterday: 45 °F (at 11:25 PM)
Average temperature yesterday: 50 °F

Past Weeks' High & Low Weather Summary

 TemperatureHumidityPressure
High63 °F (Mar 17, 2:25 PM)100% (Mar 16, 3:25 AM)30.39 "Hg (Mar 16, 3:25 AM)
Low27 °F (Mar 24, 4:55 AM)39% (Mar 17, 3:25 PM)29.24 "Hg (Mar 29, 5:55 PM)
Average43 °F85%30.03 "Hg
* Reported Mar 15 7:25 AM — Mar 30 8:25 AM, Nijmegen, Weather by CustomWeather, © 2015

Note: Actual official high and low records may vary slightly from our data, if they occured in-between our weather recording intervals... More about our weather records

Advertising

Nijmegen weather history for previous 24 hours

 ConditionsComfort  
Time TempWeatherWind HumidityBarometerVisibility
8:25 AM
Mon, Mar 30
45 °FPartly sunny.16 mph71%29.56 "HgN/A
7:55 AM45 °FPassing clouds.13 mph71%29.53 "HgN/A
7:25 AM45 °FPassing clouds.12 mph76%29.50 "HgN/A
6:55 AM45 °FOvercast.12 mph76%29.50 "HgN/A
6:25 AM43 °FPassing clouds.13 mph76%29.47 "HgN/A
5:55 AM43 °FPartly cloudy.14 mph81%29.47 "HgN/A
5:25 AM43 °FQuite cool.14 mph76%29.47 "HgN/A
4:55 AM45 °FQuite cool.13 mph76%29.45 "HgN/A
4:25 AM45 °FQuite cool.13 mph76%29.45 "HgN/A
3:55 AM45 °FPassing clouds.13 mph76%29.45 "HgN/A
3:25 AM45 °FPassing clouds.13 mph76%29.45 "HgN/A
2:55 AM45 °FQuite cool.15 mph81%29.45 "HgN/A
2:25 AM43 °FPassing clouds.13 mph87%29.42 "HgN/A
1:55 AM43 °FSprinkles. Mostly cloudy.13 mph87%29.42 "HgN/A
1:25 AM46 °FDrizzle. Mostly cloudy.10 mph76%29.42 "HgN/A
12:55 AM46 °FPartly cloudy.12 mph76%29.42 "HgN/A
12:25 AM46 °FOvercast.13 mph76%29.42 "HgN/A
11:55 PM
Sun, Mar 29
46 °FMostly cloudy.13 mph76%29.39 "HgN/A
11:25 PM45 °FPassing clouds.12 mph87%29.39 "HgN/A
10:55 PM46 °FPartly cloudy.16 mph82%29.39 "HgN/A
10:25 PM46 °FMostly cloudy.16 mph82%29.39 "HgN/A
9:55 PM46 °FOvercast.15 mph82%29.36 "HgN/A
9:25 PM48 °FLight rain. Partly cloudy.17 mph76%29.36 "HgN/A
8:59 PM48 °FThunderstorms. Broken clouds.17 mph82%29.33 "HgN/A
8:25 PM50 °FBroken clouds.20 mph76%29.30 "HgN/A
7:55 PM50 °FPartly sunny.22 mph82%29.27 "HgN/A
7:25 PM48 °FThunderstorms. Broken clouds.21 mph87%29.24 "Hg4 mi
6:55 PM52 °FBroken clouds.25 mph88%29.24 "HgN/A
6:25 PM52 °FDrizzle. Broken clouds.31 mph94%29.24 "Hg2 mi
5:55 PM52 °FDrizzle. Broken clouds.26 mph94%29.24 "Hg2 mi
5:25 PM52 °FDrizzle. Broken clouds.28 mph94%29.27 "Hg2 mi
5:00 PM52 °FLight rain. Partly sunny.28 mph94%29.27 "Hg2 mi
4:25 PM52 °FDrizzle. Partly sunny.25 mph94%29.30 "Hg3 mi
3:55 PM52 °FLight rain. Partly sunny.24 mph94%29.33 "HgN/A
3:25 PM52 °FSprinkles. Mostly cloudy.25 mph94%29.36 "Hg5 mi
2:55 PM52 °FDrizzle. Cloudy.24 mph94%29.36 "Hg5 mi
2:25 PM52 °FLight rain. Cloudy.24 mph94%29.39 "HgN/A
1:55 PM52 °FLight rain. Mostly cloudy.22 mph88%29.45 "HgN/A
1:25 PM50 °FLight rain. Mostly cloudy.15 mph94%29.47 "Hg6 mi
12:56 PM50 °FDrizzle. Cloudy.14 mph88%29.50 "Hg6 mi
12:25 PM50 °FDrizzle. Broken clouds.20 mph88%29.53 "HgN/A
11:55 AM50 °FDrizzle. Broken clouds.21 mph88%29.53 "HgN/A
11:25 AM50 °FCloudy.22 mph88%29.56 "HgN/A
10:55 AM48 °FDrizzle. Broken clouds.17 mph94%29.56 "Hg6 mi
10:25 AM48 °FBroken clouds.18 mph94%29.59 "HgN/A
9:55 AM48 °FDrizzle. Partly sunny.18 mph94%29.59 "Hg6 mi
9:25 AM48 °FDrizzle. Broken clouds.17 mph94%29.62 "Hg1 mi
Weather by CustomWeather, © 2015

See weather overviewHow to use our weather pages